Theta_e
349 349 350 350 349 349 348 347 346 345 344 344 342 341 341 342 344 345 345 346 347 347 347 347 347 347 347 347 347 347 347 345 342 340 338 338 338 338 338 338 338 338 337 337 336 337 337 338 339 339 340 341 341 341 342 344 345 345 345 344 343 341 341
349 348 349 349 349 349 348 347 346 345 344 344 344 343 342 341 341 342 343 344 345 346 346 346 346 346 346 347 347 347 346 346 344 341 339 339 338 338 338 337 337 337 337 336 336 336 336 337 337 338 339 340 341 341 342 343 344 344 344 344 343 341 340
347 348 348 348 348 348 348 348 347 346 345 344 345 344 343 342 340 341 342 342 343 344 344 345 345 346 345 346 346 346 346 346 345 344 343 342 341 339 338 337 336 337 337 336 336 335 336 336 336 336 337 338 340 342 342 343 344 344 343 344 344 342 340
345 346 347 347 347 347 347 347 347 347 346 345 344 343 342 341 341 341 342 342 343 342 342 342 343 344 345 345 346 346 345 345 345 345 345 344 343 342 340 339 337 337 337 336 336 335 335 336 335 335 335 336 338 341 343 343 343 343 343 343 343 342 341
342 343 345 346 346 346 346 347 347 347 346 346 344 344 343 342 342 343 343 343 343 343 342 342 342 343 344 344 345 345 345 345 345 345 345 345 344 344 343 341 340 337 336 336 335 335 335 335 336 335 335 335 336 339 342 343 343 343 342 342 343 342 341
340 340 342 343 344 345 345 345 346 346 346 346 345 344 343 343 344 344 344 343 343 343 344 344 344 343 343 343 343 344 344 345 345 345 346 346 345 345 344 344 343 340 338 336 335 335 335 335 336 336 336 336 336 338 340 342 342 342 342 342 342 342 341
338 338 338 340 341 343 343 344 345 345 345 346 345 345 345 345 345 345 344 344 343 343 344 344 345 344 343 343 343 344 344 344 345 345 345 346 346 346 345 344 344 343 340 338 336 335 334 334 335 336 337 337 337 338 339 340 341 342 342 341 341 341 341
335 337 336 337 339 340 341 342 343 345 345 345 346 346 346 345 345 345 345 344 344 344 344 344 344 343 343 343 343 343 343 344 344 345 345 346 346 346 346 345 345 344 343 342 339 336 335 334 334 335 336 337 338 338 338 339 340 341 342 342 341 341 341
335 337 336 337 337 339 341 341 341 343 344 345 345 345 345 346 346 345 345 345 344 345 344 343 343 343 342 343 343 342 343 344 344 344 345 345 346 346 346 346 345 344 344 344 341 339 336 335 334 334 334 335 337 338 338 338 339 340 341 342 342 342 341
336 337 336 337 337 338 339 340 341 342 343 344 345 345 345 345 345 345 345 345 345 345 344 343 343 343 342 343 342 342 343 344 344 344 345 345 345 346 346 345 345 345 344 344 344 342 339 337 336 335 334 334 335 336 337 338 338 338 339 340 341 342 342
335 335 336 337 337 338 338 339 340 340 342 343 343 344 345 345 345 345 344 344 344 344 344 344 344 343 343 343 343 343 343 343 344 344 345 345 345 345 345 345 345 345 345 344 345 344 342 340 339 337 336 334 333 334 336 337 337 338 338 339 340 342 343
333 334 334 336 337 337 338 338 338 339 340 341 342 343 344 344 344 344 344 344 344 344 344 344 344 344 343 344 344 343 343 342 343 344 344 344 345 344 344 345 345 345 345 345 345 345 344 343 342 340 337 335 333 333 334 335 336 337 338 338 339 341 342
331 332 333 334 336 337 338 338 338 339 339 340 340 341 342 343 343 344 344 344 343 344 344 344 344 344 343 344 344 344 343 342 342 343 344 344 344 344 344 344 344 344 345 345 345 345 345 345 344 342 340 337 334 333 333 334 335 336 337 337 338 339 341
331 332 333 334 334 335 337 337 338 339 338 339 339 340 341 341 342 343 343 343 343 343 344 344 343 344 343 344 344 344 343 342 342 342 343 344 344 344 344 344 344 345 345 345 345 346 345 346 346 345 343 340 336 334 333 333 334 335 335 337 337 338 339
329 329 330 332 333 334 336 336 338 338 338 339 339 339 340 340 341 342 342 343 343 343 343 343 343 343 344 343 344 344 342 343 343 343 344 344 344 344 344 345 345 345 345 345 345 346 346 346 346 346 346 345 341 337 335 334 333 334 335 336 336 337 338
326 326 327 328 329 330 332 334 337 338 338 339 339 339 340 340 340 341 341 342 342 343 343 343 343 343 343 343 343 343 343 343 344 344 344 345 344 344 345 345 345 345 345 345 345 346 346 346 347 347 347 347 346 342 339 336 334 334 334 335 336 336 337
326 326 326 326 327 328 329 332 335 337 338 338 339 339 339 340 340 340 341 341 341 342 342 342 343 343 343 343 342 343 344 344 344 344 344 344 344 345 345 345 345 345 345 346 346 346 346 346 347 347 347 348 348 346 343 338 335 334 334 334 335 336 336
326 327 326 327 328 330 330 331 333 335 337 338 339 339 339 340 340 340 341 341 341 341 342 342 342 343 343 343 343 343 344 344 344 344 344 345 345 345 345 345 346 346 346 346 346 346 346 346 347 347 348 348 349 348 346 341 338 337 336 335 335 336 336
327 327 327 327 330 331 331 332 333 333 335 337 338 339 339 340 340 340 341 341 341 341 341 342 342 342 343 343 343 344 344 344 344 344 344 345 345 345 345 345 345 346 346 346 346 347 347 347 347 347 348 348 349 349 348 344 341 339 338 337 336 336 337
327 328 329 329 331 331 331 333 334 334 334 336 337 338 339 340 340 340 340 341 341 341 341 342 342 342 343 343 343 343 344 344 344 344 345 345 345 346 346 345 346 346 346 346 347 347 347 347 347 348 348 348 349 350 349 346 343 341 340 339 337 337 338
332 332 333 333 331 330 329 332 335 336 335 335 337 339 340 340 340 340 340 340 341 341 341 342 342 342 343 343 343 344 344 344 344 344 345 345 345 346 346 346 346 346 346 347 347 347 347 347 347 348 348 349 349 350 350 349 345 342 340 339 338 337 338
335 335 335 334 331 329 330 333 337 338 337 337 337 338 339 340 340 340 341 341 341 341 342 342 342 343 343 344 344 344 344 344 344 344 345 346 347 347 347 347 346 346 347 347 347 347 347 347 348 348 348 349 349 350 350 351 347 343 341 340 339 339 339
336 336 337 337 334 333 335 337 338 338 338 338 338 339 339 340 341 341 341 341 341 341 342 342 343 343 343 343 344 344 344 344 345 345 345 346 347 347 347 347 346 347 347 347 348 347 348 348 348 348 349 349 350 350 350 351 350 346 343 341 340 340 340
339 340 341 340 339 339 339 341 340 338 338 340 340 340 340 340 341 341 341 342 342 342 342 342 342 343 343 343 343 343 344 344 344 345 346 346 346 346 347 347 347 348 348 348 348 347 348 348 348 348 349 349 349 350 350 351 351 347 344 341 341 341 340
345 344 345 343 342 342 342 343 343 339 339 339 340 340 341 340 341 341 341 342 342 342 342 342 342 343 343 343 343 343 344 344 345 346 346 346 346 346 347 347 347 348 348 348 348 349 349 349 349 349 349 349 350 350 350 352 352 350 347 345 342 342 340
349 348 347 345 342 342 343 344 343 341 339 339 339 340 340 341 341 341 342 342 343 343 343 343 343 344 343 344 344 344 345 345 345 346 346 346 347 346 347 348 348 348 349 349 349 350 350 351 351 350 349 351 353 352 351 352 353 352 351 349 345 343 342
354 352 349 345 343 342 344 345 344 342 340 340 340 340 340 341 341 341 342 343 343 343 344 344 344 344 344 345 345 346 346 346 346 347 347 347 347 347 348 349 349 349 350 350 351 351 351 351 352 352 353 353 355 355 355 354 353 352 352 352 349 347 345
356 357 354 351 347 344 344 344 345 344 343 342 342 342 341 342 341 342 343 343 344 344 345 345 345 345 345 346 345 346 346 346 346 347 347 348 349 349 349 350 350 351 351 351 352 352 352 353 354 355 357 356 355 356 357 356 355 353 352 353 352 351 350
357 358 358 357 355 352 350 348 346 345 344 344 344 344 344 343 343 344 344 344 345 345 345 346 346 346 347 347 347 348 348 348 348 348 348 349 349 350 351 351 351 352 352 352 353 353 353 354 355 356 357 357 356 357 357 356 356 356 353 354 354 354 353
354 355 356 357 356 357 357 356 354 353 351 348 346 345 345 345 345 345 345 345 346 346 346 347 347 347 348 348 348 348 348 349 349 349 350 350 350 351 352 352 353 353 353 353 354 354 355 356 356 356 356 356 356 356 356 356 356 356 355 355 355 355 354
350 351 353 355 355 356 357 357 358 358 357 356 355 352 350 348 347 346 346 347 347 347 347 347 347 347 348 348 348 349 349 349 350 350 351 351 351 352 352 353 354 355 354 355 355 355 355 356 357 357 356 355 356 357 357 356 356 356 356 356 356 355 355
345 346 348 350 352 354 354 355 355 355 355 356 356 356 356 354 353 352 352 352 352 352 352 352 352 352 351 351 351 350 349 350 349 350 351 351 352 352 352 353 354 354 355 356 356 356 356 357 357 358 358 357 358 359 358 357 357 357 356 356 356 355 355
344 344 345 346 347 349 350 351 352 352 352 352 353 353 354 354 355 355 355 356 356 356 356 356 357 357 357 357 357 357 356 355 353 352 352 351 351 351 351 352 353 354 355 356 356 357 358 359 359 359 359 359 359 359 359 358 357 357 356 356 356 355 355
343 344 344 343 343 343 344 345 346 347 348 348 348 349 349 350 350 350 351 351 351 351 352 352 352 353 354 355 357 357 358 358 358 358 357 356 354 353 352 352 352 354 355 355 356 358 359 359 360 359 359 359 359 358 358 357 356 356 356 356 356 355 355
344 343 343 343 342 340 340 341 341 342 342 343 344 345 346 346 346 346 346 346 346 346 346 347 347 347 348 348 349 349 350 351 353 355 357 359 359 358 356 355 354 354 354 354 355 356 356 357 358 359 359 359 359 358 357 356 355 354 353 356 356 355 355
344 344 344 344 343 342 342 342 342 342 342 342 343 343 343 343 342 342 342 341 341 341 341 342 342 343 343 344 344 344 344 345 345 346 348 350 352 353 354 353 353 353 354 355 356 356 355 356 356 356 357 359 358 358 356 355 355 354 353 355 356 356 356
343 343 343 343 343 343 343 343 344 343 343 343 342 341 341 341 340 340 339 338 338 338 339 339 340 340 341 342 342 343 343 343 343 344 344 344 344 343 341 340 340 342 344 345 347 349 352 354 355 356 357 357 357 358 357 357 357 356 355 356 356 356 356
344 344 344 343 342 342 341 341 341 341 340 339 337 337 337 338 338 339 339 338 338 338 339 339 340 340 342 343 343 343 342 340 339 339 340 340 339 335 332 331 332 332 333 333 333 335 338 343 348 351 355 357 357 357 357 357 357 357 356 356 356 356 356
Wind_Speed
32 33 36 38 43 49 52 53 51 49 49 48 47 47 48 48 49 50 50 49 48 47 45 44 43 42 41 39 38 36 35 34 34 34 35 34 34 33 32 31 30 30 30 29 27 26 25 24 23 23 22 22 21 20 19 19 18 17 16 16 15 14 13
29 33 36 37 42 49 53 54 53 51 50 49 48 49 49 50 50 50 50 49 49 48 46 45 44 43 42 40 39 37 36 35 34 34 34 34 34 33 33 32 31 30 29 28 27 27 26 24 24 23 22 22 21 20 21 20 19 18 17 17 16 15 14
27 31 34 37 43 51 54 54 54 53 52 51 50 50 50 51 50 50 51 50 50 49 48 47 46 44 43 41 40 38 37 36 35 35 34 34 33 33 33 32 31 30 29 29 28 27 27 26 25 24 23 22 21 21 22 21 20 20 19 18 17 16 15
28 31 34 40 47 52 54 54 54 54 54 54 53 52 51 50 49 50 50 50 50 50 49 48 47 46 44 43 42 41 39 38 37 36 35 34 33 32 33 33 32 31 30 30 28 27 27 27 27 26 25 24 22 22 22 22 21 21 20 19 19 18 17
29 31 32 38 45 49 52 54 54 55 56 56 55 54 53 51 49 50 50 49 50 49 49 48 48 47 46 44 43 43 42 40 39 38 37 36 34 34 33 33 32 32 32 30 29 28 27 27 27 27 27 26 25 24 24 23 23 22 21 21 20 20 19
27 31 35 39 43 47 51 54 55 57 57 57 56 56 54 53 52 52 51 50 49 49 48 48 48 48 46 45 45 45 44 43 41 40 40 38 37 36 35 34 33 33 32 32 31 30 28 28 28 27 27 27 26 26 26 25 24 23 23 22 22 21 20
30 33 38 40 43 46 50 52 54 56 57 57 56 55 54 53 53 53 53 52 51 50 49 49 48 47 47 46 46 46 45 44 43 42 42 41 40 39 38 36 35 33 33 33 33 32 31 30 29 29 28 28 28 28 28 27 26 25 24 24 23 23 22
35 34 38 40 43 45 47 50 52 53 55 56 55 55 54 54 54 54 54 54 53 52 51 49 48 47 46 46 46 45 44 44 44 43 43 43 43 42 40 38 36 34 34 34 34 33 33 32 32 31 30 30 30 30 29 29 28 27 26 26 25 25 24
31 30 33 36 39 40 42 46 50 49 50 52 53 53 53 53 55 55 55 55 54 54 53 51 50 48 46 46 45 44 44 44 43 43 42 43 43 43 42 40 38 36 35 35 34 34 35 34 34 34 33 32 32 31 31 31 30 29 29 28 27 26 26
25 22 24 28 32 36 38 42 45 45 45 47 49 50 51 53 55 55 55 55 55 55 54 52 52 50 48 47 46 45 45 45 44 43 43 43 43 43 42 41 39 37 36 35 35 35 36 35 36 36 36 35 35 34 34 33 32 31 30 30 29 28 27
21 19 21 24 28 31 35 38 41 43 45 45 47 49 51 52 54 55 55 55 55 55 54 53 53 52 51 50 49 48 47 46 45 45 45 44 44 43 42 41 40 39 38 37 36 36 36 36 37 38 38 38 38 37 36 35 34 33 32 31 31 29 28
16 17 20 23 25 27 32 35 38 42 44 45 47 49 50 51 53 54 55 55 55 54 54 54 53 53 53 51 51 50 49 48 47 47 46 45 45 43 42 42 42 40 39 38 37 37 36 37 38 39 40 39 39 39 38 37 37 36 34 33 32 31 29
14 16 17 18 21 25 29 33 36 40 43 45 47 48 49 51 53 53 54 54 54 53 54 54 53 54 53 52 52 52 51 49 48 48 47 46 45 44 43 42 42 42 41 40 39 38 38 37 38 40 40 40 40 40 39 39 39 38 37 36 34 33 31
11 13 14 14 18 23 27 31 35 38 41 44 46 47 48 50 52 52 52 52 52 52 53 53 54 53 52 52 53 53 51 50 48 48 48 47 46 44 44 43 43 43 42 42 41 40 39 38 38 39 40 40 41 42 41 40 41 41 40 38 37 35 33
9 11 12 14 17 20 24 28 33 36 39 42 44 46 47 48 49 50 51 51 52 52 53 53 53 51 51 52 52 52 50 49 49 49 49 48 48 46 45 45 44 44 44 43 42 42 41 40 39 39 40 40 41 43 43 43 43 43 42 40 38 37 35
10 12 13 14 16 19 22 25 29 33 36 39 43 45 47 48 48 49 50 51 52 52 52 53 51 50 51 52 51 50 49 49 50 50 50 49 49 47 46 46 45 45 45 44 43 43 42 41 41 42 41 40 41 42 44 45 45 44 43 41 39 37 36
17 19 19 18 19 20 21 24 28 31 34 37 41 43 45 47 47 48 49 50 50 50 51 51 50 50 50 50 49 49 49 50 50 50 50 49 48 48 47 46 45 45 45 45 44 43 43 42 43 43 43 42 42 43 45 46 46 45 43 42 40 38 37
25 26 26 23 20 19 20 22 26 30 33 36 38 41 44 45 46 47 48 48 48 49 49 49 49 50 49 48 48 49 50 50 50 50 49 49 48 48 47 46 46 46 46 46 45 44 44 44 44 44 44 44 43 44 45 46 46 45 44 42 41 39 38
27 28 28 25 21 19 18 19 22 27 31 34 35 37 40 43 45 45 44 44 45 47 48 49 49 49 49 49 49 49 49 49 50 49 49 49 48 48 47 46 47 47 47 46 46 46 46 45 45 45 45 45 45 45 45 45 45 45 43 42 41 40 38
24 24 24 23 20 19 18 17 17 21 26 31 33 34 36 40 42 42 42 43 44 45 45 46 47 48 49 49 49 48 49 49 49 49 49 49 49 48 48 47 47 47 47 47 47 47 47 46 46 46 46 46 46 46 45 45 45 45 43 42 41 40 39
21 20 21 20 19 19 20 19 16 17 21 26 31 34 35 37 38 40 42 43 43 44 44 44 46 47 48 49 49 48 48 48 49 49 49 49 49 49 49 48 48 48 48 48 48 48 47 46 46 46 46 46 47 47 46 45 45 45 43 42 41 40 38
18 18 19 19 19 21 22 20 17 16 17 20 25 31 34 35 37 40 42 42 42 43 44 44 46 47 48 48 48 48 48 49 49 49 49 49 50 50 50 49 49 48 48 49 49 48 47 47 47 48 47 46 47 47 47 46 46 46 44 41 40 39 38
16 17 17 17 19 20 20 18 15 14 15 16 20 25 29 32 36 38 39 40 41 42 42 44 46 46 46 46 46 47 47 47 48 49 49 49 50 50 50 50 49 49 49 49 49 50 49 48 48 48 48 48 49 48 48 47 47 47 45 42 40 39 39
14 14 14 14 15 16 15 14 12 12 13 13 16 19 22 27 31 35 37 38 39 41 42 43 45 45 44 44 44 44 45 45 46 47 48 48 49 50 50 50 50 50 49 48 49 50 50 49 49 49 49 49 49 49 48 48 48 47 45 42 40 40 40
11 10 10 10 10 11 10 9 9 11 12 13 15 16 18 22 26 30 33 35 37 39 41 41 41 42 41 41 40 41 42 44 46 46 47 48 48 49 50 50 50 50 50 49 50 51 51 51 52 51 50 51 51 50 49 48 47 47 47 44 41 41 41
10 8 7 6 6 6 5 6 7 11 13 15 16 16 17 20 23 27 30 32 34 36 37 38 38 38 39 39 39 41 42 44 44 45 45 46 46 47 47 47 48 49 49 49 51 51 52 53 53 53 53 51 50 50 50 49 49 49 48 46 44 42 41
12 11 9 8 6 6 6 6 8 9 12 14 14 14 15 16 18 21 24 27 30 32 34 35 36 37 38 38 39 41 42 41 41 42 44 44 45 46 46 46 47 48 49 50 51 52 52 53 53 54 53 50 48 46 45 47 50 51 49 48 47 44 43
15 15 14 13 11 10 9 8 7 8 9 11 11 12 13 13 13 15 18 22 26 28 30 31 32 33 34 35 36 38 39 38 37 39 41 43 44 46 46 46 47 48 49 50 50 51 53 53 51 46 42 44 46 43 40 41 46 50 51 50 48 46 44
18 18 17 17 16 15 14 12 11 9 8 9 10 11 12 13 14 15 17 20 22 24 26 27 28 29 30 31 32 33 35 36 35 36 39 41 43 44 44 45 47 48 48 49 49 51 52 51 48 43 39 41 43 43 42 42 44 49 51 49 48 46 44
17 18 18 18 18 18 17 16 16 15 13 11 11 11 12 13 14 16 17 18 18 19 21 22 23 24 25 27 28 28 30 32 33 35 37 39 41 42 43 44 45 46 48 48 48 49 49 47 46 46 48 49 46 46 47 45 44 48 51 49 47 46 43
15 16 17 17 18 17 16 17 18 17 17 16 15 13 13 12 13 14 14 14 13 14 15 16 17 18 18 20 22 23 25 27 30 32 35 36 38 40 42 43 44 45 47 48 47 48 49 47 44 46 52 53 48 47 48 47 47 50 51 48 46 45 44
13 14 15 16 17 16 15 16 16 16 17 17 16 15 15 12 11 10 9 7 6 7 8 9 11 12 13 15 16 18 20 22 24 27 30 32 35 37 39 41 43 44 46 47 48 49 51 50 46 45 47 46 42 40 41 43 47 50 50 49 46 43 43
14 14 15 16 16 14 13 13 13 13 13 14 14 13 12 11 10 9 7 5 3 3 3 3 4 5 7 9 11 13 15 17 19 21 24 26 29 32 35 38 41 43 44 45 46 45 43 42 41 41 42 43 41 38 38 41 47 51 50 49 47 45 43
13 14 14 15 15 14 13 12 12 12 11 11 11 9 8 7 6 5 4 2 1 0 1 2 2 2 3 3 5 6 9 11 13 15 18 20 23 27 30 32 34 36 38 40 42 42 40 39 38 39 40 43 44 43 43 48 53 56 56 54 52 48 45
14 15 15 15 15 15 15 14 13 12 12 12 11 9 8 7 6 5 4 4 4 4 4 4 5 5 4 4 4 4 5 6 7 9 12 15 18 22 25 27 28 30 33 35 37 41 43 44 44 45 43 42 43 49 56 60 59 59 61 60 55 51 48
15 16 16 16 16 18 18 18 17 17 17 17 15 13 12 11 9 8 7 6 6 5 5 4 4 3 3 3 3 4 4 5 5 6 7 9 12 15 17 20 22 26 32 36 38 42 46 48 51 53 52 48 49 54 60 63 61 60 61 60 56 53 50
19 20 19 19 21 24 25 25 24 24 24 23 21 20 19 17 16 14 12 10 9 8 7 6 6 6 6 7 7 7 7 7 7 6 5 5 5 6 8 10 11 11 15 21 27 33 40 47 53 56 57 58 60 61 61 62 62 62 63 61 57 53 50
28 29 28 28 29 31 31 30 30 29 29 28 27 26 25 24 23 21 18 15 13 11 11 11 11 11 13 14 14 15 16 16 15 14 13 12 11 12 14 16 18 16 15 17 21 25 27 34 44 53 58 61 63 64 65 65 65 65 65 62 56 51 49
Wind_Direction
205 207 209 210 214 219 222 224 226 227 228 228 226 226 226 226 227 226 227 226 225 224 224 224 224 224 224 224 225 225 226 227 228 230 231 232 233 234 234 234 233 231 229 229 231 233 235 235 236 238 240 242 243 243 244 245 246 248 249 249 250 250 252
204 207 208 207 212 219 223 224 225 226 228 229 227 226 225 226 226 226 227 227 226 226 226 225 225 226 226 226 226 226 226 227 228 229 231 233 234 235 235 235 234 234 231 229 231 234 237 238 238 239 241 243 244 244 244 244 244 245 246 246 247 248 248
205 206 206 207 213 220 223 224 224 225 226 228 227 227 227 227 227 226 226 227 227 227 227 226 226 226 227 227 227 227 226 227 228 229 230 232 233 234 234 234 234 235 234 231 231 234 236 238 239 240 241 243 245 245 244 243 242 243 243 243 244 245 246
212 210 208 212 217 221 223 224 224 224 225 227 228 229 229 229 229 228 228 228 227 227 226 226 226 226 227 228 228 228 227 227 228 229 231 232 233 234 234 234 233 234 234 231 231 233 235 237 239 240 241 242 244 245 244 242 241 241 241 240 241 243 244
217 214 210 214 219 220 221 222 224 224 224 225 227 229 230 230 229 228 229 229 229 230 229 227 227 227 228 228 229 229 228 228 228 229 231 232 233 234 234 234 233 233 233 231 230 231 233 235 237 238 239 240 242 243 243 241 239 239 239 238 237 240 242
217 215 215 217 218 219 219 221 223 224 225 226 226 228 229 228 227 228 229 229 230 231 231 230 230 229 229 229 229 230 230 230 230 230 231 232 233 234 235 234 233 232 231 231 230 231 232 234 236 237 238 239 239 240 241 240 238 238 239 237 235 237 240
223 218 219 220 219 220 220 221 222 224 226 226 226 227 226 225 226 227 228 229 230 230 231 231 232 232 232 231 231 232 232 232 232 232 232 232 233 234 235 235 234 233 232 231 231 231 232 233 235 236 237 238 238 239 239 239 238 238 239 238 236 236 238
231 226 224 224 223 223 221 222 222 222 223 224 224 225 224 223 225 227 227 229 229 229 230 232 232 233 233 233 233 233 234 234 234 234 233 233 233 234 235 235 236 235 234 233 232 232 232 233 234 235 236 237 238 239 239 239 239 239 240 240 239 237 237
234 230 228 227 226 223 221 223 224 221 220 222 222 224 224 222 224 226 228 229 229 228 230 231 233 234 234 234 234 234 234 235 235 235 235 234 234 234 235 236 236 236 235 235 234 233 232 232 234 235 235 236 238 239 239 239 239 239 240 241 240 239 238
241 236 232 230 228 226 223 224 225 221 220 221 221 221 222 223 225 227 228 229 229 230 231 232 232 234 234 234 235 235 235 235 236 236 236 235 236 235 235 236 236 236 236 236 235 234 233 233 234 236 236 236 237 238 239 239 240 240 240 240 241 240 238
247 243 238 235 232 229 227 226 225 222 220 221 220 219 220 223 225 227 227 228 229 231 232 231 232 233 234 234 234 235 236 236 236 237 237 236 237 237 236 236 236 237 237 236 236 236 235 234 234 236 236 236 236 237 238 239 239 240 240 240 241 240 239
251 247 243 240 236 233 231 230 225 222 220 220 220 219 219 221 224 226 227 229 230 231 231 231 231 233 234 233 233 234 236 236 237 237 237 237 238 237 238 237 237 238 237 237 237 237 236 235 236 237 237 236 236 237 238 239 240 241 241 241 241 241 241
258 249 245 241 238 236 234 231 227 223 222 222 222 222 221 221 222 225 226 228 229 230 231 231 231 232 234 233 232 234 236 237 237 238 238 238 239 239 239 239 239 239 239 238 238 238 237 237 237 238 238 238 238 237 237 238 240 241 242 242 242 242 242
261 246 243 239 237 235 234 233 230 226 224 223 224 224 222 223 224 225 226 228 228 228 230 232 232 232 233 233 233 234 236 237 238 238 239 239 240 240 240 240 240 240 240 240 240 239 239 239 240 240 240 240 239 239 238 238 239 241 241 241 242 242 242
252 246 246 244 243 240 238 238 235 229 226 225 224 224 223 224 225 225 225 226 227 228 230 232 233 233 232 233 234 237 238 238 238 239 239 239 240 240 240 241 241 241 242 242 242 241 241 241 241 242 243 242 241 241 240 239 239 240 240 241 241 241 242
263 266 266 268 267 258 249 246 241 234 229 226 224 224 224 224 224 224 224 225 227 228 230 233 234 232 231 234 236 238 238 237 237 238 238 239 240 241 241 241 241 242 242 243 243 243 242 242 242 243 244 243 243 242 242 241 240 239 240 241 241 242 242
283 283 283 287 287 275 260 253 246 237 231 228 227 226 225 225 225 224 224 225 226 228 230 231 231 231 232 236 237 236 236 236 236 237 238 238 239 240 241 241 242 242 242 243 243 243 243 242 242 243 244 245 244 244 243 242 241 240 240 240 241 241 242
285 286 286 288 289 280 268 258 250 242 235 231 229 227 227 227 225 224 224 226 228 228 229 230 230 231 233 236 235 234 234 235 236 237 238 239 239 240 240 241 241 242 242 242 242 243 243 242 243 243 244 245 246 246 245 244 243 242 241 241 241 241 242
276 278 280 279 275 272 271 264 257 250 243 236 232 231 230 228 226 226 227 228 228 227 227 229 231 232 233 233 232 233 234 235 236 237 239 240 240 240 240 240 241 241 242 242 243 243 243 243 243 243 244 245 246 246 247 246 245 244 242 241 240 240 241
264 268 273 273 268 269 275 274 264 257 249 242 237 235 233 231 231 231 229 228 226 226 228 230 231 232 233 232 232 234 235 236 237 239 240 240 240 239 240 240 241 241 242 242 243 243 243 243 243 243 244 245 246 247 248 248 247 246 243 241 240 239 240
254 259 266 269 268 271 277 279 272 261 252 244 237 233 232 232 232 231 229 227 227 228 229 230 230 230 231 231 232 234 234 236 238 239 240 240 239 240 240 241 241 242 241 241 242 243 244 244 244 244 244 245 246 247 248 249 249 247 244 242 240 239 239
248 255 263 268 270 271 273 273 268 258 252 246 237 232 231 231 230 229 228 228 228 228 229 228 228 228 228 230 232 233 234 236 238 238 239 239 239 239 240 241 242 242 241 242 242 243 244 244 244 245 245 245 246 248 248 249 249 248 245 242 239 238 238
247 255 261 264 266 267 267 267 262 252 244 241 235 231 230 229 228 228 228 228 228 229 229 229 229 229 230 232 235 235 237 238 238 239 240 239 240 241 241 243 243 243 242 242 242 243 243 243 243 244 245 245 245 246 247 248 249 249 247 243 240 238 236
242 249 256 259 260 263 264 264 259 246 235 231 230 230 229 228 228 228 228 228 229 229 229 230 232 233 234 236 239 240 241 241 241 241 240 241 242 243 244 244 244 244 244 243 243 244 244 244 244 244 244 244 245 245 246 247 249 251 249 246 242 238 235
223 232 240 244 251 258 259 254 244 231 221 217 219 222 225 227 227 228 230 230 230 230 231 234 237 237 238 240 243 244 244 243 242 242 242 243 245 245 245 246 246 247 247 246 245 245 245 246 246 246 245 245 245 246 246 245 246 250 250 247 244 240 237
187 189 191 203 220 230 222 211 209 210 208 208 210 213 217 222 225 228 231 232 231 232 235 239 240 239 240 241 242 242 241 241 241 242 244 246 248 248 248 248 248 248 249 248 247 246 246 246 247 248 248 246 245 246 246 245 245 248 250 248 245 241 238
155 148 141 142 144 152 162 170 178 189 197 199 200 201 205 211 218 224 229 231 232 235 237 239 239 239 239 240 240 240 240 242 244 246 247 249 250 249 249 249 249 248 248 248 247 246 247 247 248 248 249 247 245 246 245 244 246 247 248 248 246 242 239
134 127 122 118 114 118 127 138 153 170 182 184 183 183 185 189 200 212 220 225 228 232 235 236 239 241 243 244 244 245 246 247 250 251 251 250 250 250 249 249 248 248 248 248 247 247 248 249 248 248 248 248 247 246 243 243 246 248 248 248 247 245 241
128 122 119 116 112 112 115 120 130 138 147 159 165 167 169 174 184 196 208 216 221 226 231 234 237 240 243 245 246 248 249 250 253 254 253 252 252 252 251 249 248 248 248 249 248 247 248 248 247 246 248 249 247 246 246 244 246 248 249 247 247 246 244
126 120 119 118 117 115 114 115 116 116 117 123 135 151 162 170 178 188 199 208 215 224 230 236 240 242 244 246 247 249 250 252 254 254 253 253 254 254 252 249 248 248 248 249 249 247 247 247 246 246 248 249 247 247 247 244 243 247 249 247 245 245 244
123 120 118 116 116 116 113 111 110 110 110 109 112 126 141 157 174 183 189 198 210 223 231 239 246 248 250 250 250 252 253 254 256 255 254 254 254 253 252 251 250 249 249 249 248 246 246 246 245 246 248 248 246 244 244 242 242 244 247 247 246 244 242
119 121 119 117 117 115 111 110 109 110 110 108 107 110 116 127 147 158 161 172 196 218 232 242 247 250 253 253 254 254 253 254 256 256 257 257 256 256 256 254 253 252 252 251 250 249 248 246 244 245 246 246 244 241 239 240 241 242 245 245 243 241 240
113 117 118 118 120 119 117 115 110 106 105 103 102 103 105 111 119 122 124 131 147 176 212 237 243 248 253 254 256 257 256 254 254 254 256 258 259 259 260 258 256 255 254 252 251 249 248 246 245 244 244 244 244 241 238 238 241 243 243 239 236 235 235
108 109 110 112 116 119 119 115 109 106 103 96 91 88 88 91 91 88 91 96 91 293 289 302 299 291 282 273 268 267 264 262 259 257 258 259 260 261 262 262 260 258 258 258 256 253 251 249 248 246 245 244 243 240 239 240 243 245 243 238 233 231 227
102 102 101 101 105 110 111 109 106 102 97 91 86 81 76 72 64 52 41 23 2 348 335 327 322 321 320 318 311 300 288 281 273 266 262 260 259 260 260 260 259 258 260 262 261 259 258 256 253 252 250 247 244 243 243 244 246 250 250 243 236 229 223
100 97 96 96 99 101 101 100 98 95 93 90 87 84 79 73 65 58 48 36 27 17 2 350 340 331 326 326 330 324 315 311 308 298 288 280 274 270 268 266 263 262 263 264 263 260 259 259 259 258 255 251 249 250 251 251 253 256 253 245 236 230 225
98 95 95 95 95 97 98 99 99 97 95 93 90 86 83 78 72 67 59 52 47 41 39 44 49 52 56 55 50 48 46 42 38 27 14 4 351 342 336 327 315 298 284 281 278 272 263 258 258 259 258 255 253 252 252 252 252 252 250 243 235 228 222
95 93 93 92 92 93 94 96 97 97 96 95 93 91 88 84 80 77 73 72 71 71 73 76 75 74 73 69 66 65 64 61 59 56 52 49 40 25 10 357 347 339 331 325 322 315 298 276 262 257 255 255 254 252 250 246 244 245 245 241 232 222 217